| time (UTC) | temp F | wind direction | speed knots | gust knots | rain 1hr in | rain 24hr in | rain mn in | humidity % | barometer mb |
| 20260505180100 | 67 | 311 | 0.0 | 3.5 | 0.00 | 0.53 | 0.21 | 59 | 1007.2 |
| 20260505174555 | 65 | 316 | 1.7 | 7.8 | 0.00 | 0.53 | 0.21 | 61 | 1007.2 |
| 20260505173111 | 66 | 118 | 0.0 | 2.6 | 0.00 | 0.53 | 0.21 | 62 | 1007.2 |
| 20260505171605 | 64 | 246 | 0.0 | 2.6 | 0.00 | 0.53 | 0.21 | 65 | 1007.3 |
| 20260505170045 | 63 | 326 | 1.7 | 3.5 | 0.00 | 0.53 | 0.21 | 68 | 1007.1 |
| 20260505164543 | 63 | 271 | 0.9 | 3.5 | 0.00 | 0.53 | 0.21 | 73 | 1007.1 |
| 20260505163039 | 62 | 300 | 0.9 | 1.7 | 0.00 | 0.53 | 0.21 | 77 | 1007.3 |
| 20260505161539 | 61 | 326 | 1.7 | 3.5 | 0.00 | 0.53 | 0.21 | 76 | 1007.3 |
| 20260505153033 | 60 | 300 | 0.0 | 1.7 | 0.00 | 0.53 | 0.21 | 87 | 1006.9 |
| 20260505151534 | 60 | 224 | 0.0 | 0.0 | 0.00 | 0.53 | 0.21 | 89 | 1006.8 |
| 20260505124520 | 57 | 118 | 0.0 | 0.9 | 0.02 | 0.53 | 0.21 | 92 | 1005.9 |
| 20260505123017 | 57 | 118 | 0.0 | 0.0 | 0.02 | 0.53 | 0.21 | 91 | 1005.6 |
| 20260505121529 | 57 | 118 | 0.0 | 0.0 | 0.01 | 0.52 | 0.20 | 91 | 1005.2 |
| 20260505120015 | 57 | 118 | 0.0 | 0.9 | 0.01 | 0.51 | 0.19 | 90 | 1005.1 |
| 20260505114515 | 57 | 118 | 0.0 | 2.6 | 0.01 | 0.51 | 0.19 | 88 | 1005.2 |
| 20260505113013 | 57 | 321 | 0.9 | 3.5 | 0.02 | 0.51 | 0.19 | 88 | 1005.5 |
| 20260505111511 | 57 | 321 | 0.9 | 3.5 | 0.03 | 0.51 | 0.19 | 89 | 1005.1 |
| 20260505101504 | 56 | 325 | 1.7 | 2.6 | 0.04 | 0.48 | 0.16 | 92 | 1006.5 |
| 20260505100008 | 57 | 103 | 0.0 | 1.7 | 0.05 | 0.48 | 0.16 | 91 | 1006.9 |
| 20260505094500 | 57 | 103 | 0.0 | 0.9 | 0.06 | 0.48 | 0.16 | 91 | 1006.3 |
| 20260505093058 | 57 | 106 | 0.0 | 1.7 | 0.05 | 0.46 | 0.14 | 92 | 1007.5 |
| 20260505091617 | 57 | 103 | 0.0 | 3.5 | 0.04 | 0.44 | 0.12 | 92 | 1007.3 |
| 20260505090101 | 57 | 113 | 0.9 | 4.3 | 0.05 | 0.43 | 0.11 | 92 | 1007.7 |
| 20260505084552 | 58 | 114 | 0.9 | 1.7 | 0.06 | 0.42 | 0.10 | 91 | 1008.0 |
| 20260505083052 | 58 | 111 | 0.0 | 0.9 | 0.06 | 0.41 | 0.09 | 91 | 1008.4 |
| 20260505081549 | 58 | 113 | 0.0 | 1.7 | 0.06 | 0.39 | 0.07 | 91 | 1008.6 |
| 20260505080051 | 58 | 322 | 0.0 | 0.9 | 0.06 | 0.38 | 0.06 | 90 | 1008.9 |
| 20260505074545 | 58 | 322 | 0.0 | 1.7 | 0.04 | 0.36 | 0.04 | 89 | 1009.2 |
| 20260505073055 | 58 | 318 | 0.0 | 1.7 | 0.05 | 0.35 | 0.03 | 88 | 1009.0 |
| 20260505071545 | 58 | 314 | 0.0 | 0.9 | 0.05 | 0.33 | 0.01 | 88 | 1009.0 |
| 20260505070040 | 58 | 314 | 0.0 | 2.6 | 0.05 | 0.32 | 0.00 | 88 | 1008.6 |
| 20260505064537 | 58 | 328 | 0.0 | 1.7 | 0.06 | 0.32 | 0.32 | 88 | 1008.5 |
| 20260505063046 | 58 | 331 | 0.9 | 3.5 | 0.06 | 0.30 | 0.30 | 87 | 1008.4 |
| 20260505061539 | 58 | 322 | 0.9 | 2.6 | 0.05 | 0.28 | 0.28 | 88 | 1008.7 |
| 20260505060035 | 58 | 119 | 0.0 | 1.7 | 0.04 | 0.27 | 0.27 | 88 | 1008.5 |
| 20260505054543 | 59 | 119 | 0.0 | 0.9 | 0.04 | 0.26 | 0.26 | 88 | 1008.2 |
| 20260505053034 | 59 | 119 | 0.0 | 0.9 | 0.03 | 0.24 | 0.24 | 86 | 1008.6 |
| 20260505051539 | 59 | 332 | 0.0 | 0.0 | 0.02 | 0.23 | 0.23 | 84 | 1008.4 |
| 20260505041542 | 60 | 300 | 0.0 | 1.7 | 0.00 | 0.21 | 0.21 | 77 | 1008.3 |
| 20260505040026 | 60 | 310 | 1.7 | 3.5 | 0.02 | 0.21 | 0.21 | 74 | 1008.1 |
| 20260505034524 | 59 | 332 | 1.7 | 6.1 | 0.04 | 0.21 | 0.21 | 74 | 1007.7 |
| 20260505033025 | 58 | 314 | 0.0 | 5.2 | 0.05 | 0.21 | 0.21 | 80 | 1007.3 |
| 20260505031530 | 57 | 103 | 0.0 | 3.5 | 0.07 | 0.21 | 0.21 | 80 | 1007.7 |
| 20260505030023 | 57 | 307 | 0.9 | 4.3 | 0.06 | 0.18 | 0.18 | 76 | 1008.5 |
| 20260505024521 | 57 | 353 | 1.7 | 5.2 | 0.07 | 0.17 | 0.17 | 78 | 1008.3 |
| 20260505023019 | 57 | 320 | 0.9 | 7.0 | 0.07 | 0.16 | 0.16 | 79 | 1008.5 |
| 20260505021517 | 58 | 304 | 0.0 | 6.1 | 0.06 | 0.14 | 0.14 | 74 | 1008.4 |
| 20260505020013 | 59 | 288 | 2.6 | 7.8 | 0.05 | 0.12 | 0.12 | 68 | 1008.1 |
| 20260505014515 | 60 | 319 | 2.6 | 9.6 | 0.04 | 0.10 | 0.10 | 68 | 1007.9 |
| 20260505013006 | 61 | 309 | 2.6 | 8.7 | 0.04 | 0.09 | 0.09 | 68 | 1007.2 |
| 20260505011503 | 61 | 319 | 1.7 | 4.3 | 0.05 | 0.08 | 0.08 | 63 | 1006.7 |
| 20260505010006 | 62 | 319 | 1.7 | 3.5 | 0.04 | 0.07 | 0.07 | 64 | 1006.7 |
| 20260505004600 | 62 | 315 | 1.7 | 7.0 | 0.03 | 0.06 | 0.06 | 62 | 1006.8 |
| 20260505003114 | 63 | 327 | 3.5 | 7.8 | 0.04 | 0.05 | 0.05 | 62 | 1006.7 |
| 20260505001558 | 64 | 314 | 2.6 | 7.8 | 0.03 | 0.03 | 0.03 | 57 | 1006.2 |
| 20260504234555 | 63 | 322 | 2.6 | 11.3 | 0.03 | 0.03 | 0.03 | 61 | 1005.9 |
| 20260504233055 | 68 | 335 | 7.0 | 13.9 | 0.00 | 0.00 | 0.00 | 46 | 1006.6 |
| 20260504231550 | 74 | 319 | 7.8 | 20.9 | 0.00 | 0.00 | 0.00 | 28 | 1006.0 |
| 20260504230108 | 75 | 328 | 8.7 | 13.9 | 0.00 | 0.00 | 0.00 | 25 | 1005.7 |
| 20260504224600 | 76 | 321 | 7.0 | 12.2 | 0.00 | 0.00 | 0.00 | 22 | 1005.5 |
| 20260504223047 | 77 | 310 | 4.3 | 13.9 | 0.00 | 0.00 | 0.00 | 21 | 1005.6 |
| 20260504221546 | 78 | 301 | 8.7 | 13.9 | 0.00 | 0.00 | 0.00 | 20 | 1005.4 |
| 20260504220052 | 79 | 349 | 7.0 | 14.8 | 0.00 | 0.00 | 0.00 | 20 | 1005.6 |
| 20260504214546 | 79 | 335 | 6.1 | 12.2 | 0.00 | 0.00 | 0.00 | 19 | 1005.2 |
| 20260504213043 | 80 | 340 | 5.2 | 10.4 | 0.00 | 0.00 | 0.00 | 18 | 1005.0 |
| 20260504211543 | 80 | 339 | 5.2 | 10.4 | 0.00 | 0.00 | 0.00 | 18 | 1005.3 |
| 20260504210055 | 80 | 275 | 1.7 | 7.0 | 0.00 | 0.00 | 0.00 | 20 | 1005.5 |
| 20260504204547 | 79 | 312 | 5.2 | 10.4 | 0.00 | 0.00 | 0.00 | 19 | 1005.7 |
| 20260504203043 | 80 | 280 | 0.9 | 7.0 | 0.00 | 0.00 | 0.00 | 20 | 1005.7 |
| 20260504201541 | 80 | 324 | 0.0 | 3.5 | 0.00 | 0.00 | 0.00 | 21 | 1006.0 |
| 20260504200049 | 79 | 293 | 1.7 | 7.0 | 0.00 | 0.00 | 0.00 | 22 | 1005.9 |
| 20260504194535 | 79 | 333 | 3.5 | 7.8 | 0.00 | 0.00 | 0.00 | 22 | 1005.8 |
| 20260504193032 | 78 | 321 | 0.0 | 4.3 | 0.00 | 0.00 | 0.00 | 24 | 1005.9 |
| 20260504191530 | 77 | 260 | 2.6 | 6.1 | 0.00 | 0.00 | 0.00 | 24 | 1006.0 |
| 20260504190029 | 77 | 321 | 0.9 | 4.3 | 0.00 | 0.00 | 0.00 | 24 | 1006.2 |
| 20260504184535 | 77 | 321 | 1.7 | 7.0 | 0.00 | 0.00 | 0.00 | 24 | 1006.4 |
| 20260504183034 | 76 | 295 | 1.7 | 5.2 | 0.00 | 0.00 | 0.00 | 24 | 1006.7 |
| 20260504181526 | 77 | 238 | 2.6 | 5.2 | 0.00 | 0.00 | 0.00 | 24 | 1006.9 |